Slayton, MN

1:00 PM CDT on July 26, 2017 (GMT -0500)
Slayton

Weather History for KDVP - April, 2013

Change the Weather History Date:

Sunday, April 7, 2013

  Actual Average (KOTG) Record (KOTG)
Temperature  
Mean Temperature 38 °F -  
Max Temperature 49 °F 48 °F 86 °F (1991)
Min Temperature 29 °F 30 °F 9 °F (1979)
Degree Days  
Heating Degree Days 26    
Moisture  
Dew Point 35 °F    
Average Humidity 90    
Maximum Humidity 100    
Minimum Humidity 61    
Precipitation  
Precipitation 0.15 in - - ()
Sea Level Pressure  
Sea Level Pressure 29.83 in    
Wind  
Wind Speed 9 mph (ENE)    
Max Wind Speed 17 mph    
Max Gust Speed 24 mph    
Visibility 5 miles    
Events Rain    
Averages and records for this station are not official NWS values.
T = Trace of Precipitation, MM = Missing Value Source: NWS Daily Summary

Daily Weather History Graph

Daily Weather History Graph

Search for Another Location

Airport or City:

Trip Planner

Search our weather history database for the weather conditions in past years. The results will help you decide how hot, cold, wet, or windy it might be!

Date:

Astronomy

Apr. 07, 2013 Rise Set
Actual Time 6:53 AM CDT 7:57 PM CDT
Civil Twilight 6:23 AM CDT 8:27 PM CDT
Nautical Twilight 5:48 AM CDT 9:02 PM CDT
Astronomical Twilight 5:11 AM CDT 9:39 PM CDT
Moon 5:16 AM CDT (4/7) 5:26 PM CDT (4/7)
Length of Visible Light 14h 03m
Length of Day
13h 04m
Waning Crescent, 8% of the Moon is Illuminated
Apr 7
Waning Crescent
Apr 10
New
Apr 18
First Quarter
Apr 25
Full
May 2
Last Quarter

Hourly Weather History & Observations

Time (CDT) Temp. Windchill Dew Point Humidity Pressure Visibility Wind Dir Wind Speed Gust Speed Precip Events Conditions
12:15 AM 33.3 °F 25.1 °F 32.0 °F 95% 29.81 in 5.0 mi NNW 10.4 mph - N/A   Overcast
12:35 AM 33.1 °F 24.4 °F 32.0 °F 96% 29.82 in 5.0 mi NNW 11.5 mph - N/A   Overcast
12:55 AM 32.9 °F 23.2 °F 31.6 °F 95% 29.84 in 7.0 mi NNW 13.8 mph - N/A   Overcast
1:15 AM 32.0 °F 24.2 °F 30.9 °F 96% 29.85 in 7.0 mi NW 9.2 mph - N/A   Overcast
1:34 AM 32.0 °F 22.5 °F 30.9 °F 96% 29.85 in 7.0 mi NNW 12.7 mph - N/A   Overcast
1:55 AM 32.0 °F 24.2 °F 31.1 °F 96% 29.86 in 5.0 mi NNW 9.2 mph - N/A   Overcast
2:15 AM 32.0 °F 24.2 °F 31.8 °F 99% 29.85 in 5.0 mi NNW 9.2 mph - N/A   Overcast
2:34 AM 32.0 °F 24.2 °F 31.1 °F 96% 29.84 in 5.0 mi NNW 9.2 mph - N/A   Overcast
2:55 AM 32.0 °F 24.8 °F 31.3 °F 97% 29.84 in 5.0 mi North 8.1 mph - N/A   Overcast
3:15 AM 31.8 °F 24.6 °F 30.9 °F 96% 29.84 in 5.0 mi NNW 8.1 mph - N/A   Overcast
3:35 AM 31.6 °F 25.1 °F 30.7 °F 96% 29.85 in 5.0 mi North 6.9 mph - N/A   Overcast
3:55 AM 31.5 °F 24.2 °F 30.6 °F 96% 29.86 in 5.0 mi NNW 8.1 mph - N/A   Overcast
4:15 AM 31.5 °F 25.8 °F 30.6 °F 96% 29.86 in 5.0 mi NNW 5.8 mph - N/A   Overcast
4:35 AM 31.5 °F 23.5 °F 30.6 °F 96% 29.86 in 5.0 mi NW 9.2 mph - N/A   Overcast
4:55 AM 31.1 °F 23.1 °F 30.2 °F 96% 29.86 in 5.0 mi NNW 9.2 mph - N/A   Overcast
5:15 AM 31.1 °F 23.7 °F 30.2 °F 96% 29.87 in 5.0 mi North 8.1 mph - N/A   Overcast
5:35 AM 31.1 °F 23.7 °F 30.2 °F 96% 29.87 in 5.0 mi North 8.1 mph - N/A   Overcast
5:55 AM 30.9 °F 23.5 °F 30.0 °F 96% 29.87 in 5.0 mi NNW 8.1 mph - N/A   Overcast
6:15 AM 30.6 °F 24.7 °F 29.7 °F 96% 29.88 in 7.0 mi NNW 5.8 mph - N/A   Overcast
6:35 AM 30.2 °F 22.6 °F 29.3 °F 96% 29.88 in 5.0 mi North 8.1 mph - N/A   Overcast
6:55 AM 30.2 °F 22.6 °F 29.7 °F 98% 29.88 in 4.0 mi North 8.1 mph - N/A   Overcast
7:15 AM 30.0 °F 23.2 °F 29.8 °F 99% 29.89 in 2.5 mi North 6.9 mph - N/A   Overcast
7:35 AM 30.0 °F 25.2 °F 30.0 °F 100% 29.89 in 2.0 mi North 4.6 mph - N/A   Overcast
7:55 AM 29.8 °F 24.9 °F 29.8 °F 100% 29.90 in 2.5 mi NNW 4.6 mph - N/A   Overcast
8:14 AM 30.0 °F 26.5 °F 30.0 °F 100% 29.90 in 2.0 mi North 3.5 mph - N/A   Overcast
8:35 AM 30.0 °F 25.2 °F 30.0 °F 100% 29.90 in 2.0 mi NNE 4.6 mph - N/A   Overcast
8:55 AM 30.2 °F 25.4 °F 30.2 °F 100% 29.90 in 1.5 mi NE 4.6 mph - N/A   Overcast
9:15 AM 30.0 °F 24.1 °F 30.0 °F 100% 29.92 in 1.5 mi North 5.8 mph - N/A   Overcast
9:35 AM 30.2 °F 25.4 °F 30.2 °F 100% 29.92 in 1.5 mi NNE 4.6 mph - N/A   Overcast
9:55 AM 30.4 °F 26.9 °F 30.6 °F 100% 29.92 in 2.0 mi ENE 3.5 mph - N/A   Overcast
10:15 AM 31.1 °F 25.4 °F 30.9 °F 99% 29.92 in 2.0 mi East 5.8 mph - N/A   Overcast
10:34 AM 31.5 °F 25.8 °F 30.9 °F 98% 29.92 in 4.0 mi East 5.8 mph - N/A   Overcast
10:55 AM 32.0 °F 26.4 °F 31.5 °F 98% 29.90 in 3.0 mi East 5.8 mph - N/A   Overcast
11:15 AM 32.2 °F 25.8 °F 31.5 °F 97% 29.90 in 4.0 mi East 6.9 mph - N/A   Overcast
11:35 AM 33.4 °F 25.4 °F 31.8 °F 94% 29.89 in 5.0 mi ESE 10.4 mph - N/A   Overcast
11:55 AM 34.7 °F 26.9 °F 32.0 °F 90% 29.89 in 7.0 mi ESE 10.4 mph - N/A   Overcast
12:15 PM 37.0 °F 29.8 °F 32.4 °F 83% 29.87 in 7.0 mi East 10.4 mph - N/A   Mostly Cloudy
12:35 PM 38.7 °F 31.4 °F 33.3 °F 81% 29.86 in 7.0 mi East 11.5 mph - N/A   Scattered Clouds
12:55 PM 40.8 °F 35.0 °F 34.0 °F 77% 29.85 in 10.0 mi ESE 9.2 mph - N/A   Clear
1:15 PM 43.5 °F 36.4 °F 34.9 °F 72% 29.83 in 10.0 mi East 15.0 mph - N/A   Clear
1:35 PM 45.5 °F 39.6 °F 35.4 °F 68% 29.83 in 10.0 mi East 12.7 mph - N/A   Clear
1:54 PM 46.9 °F - 34.9 °F 63% 29.81 in 10.0 mi East 13.8 mph - N/A   Clear
2:15 PM 48.6 °F - 35.6 °F 61% 29.81 in 10.0 mi ESE 16.1 mph 19.6 mph N/A   Scattered Clouds
2:35 PM 48.4 °F - 35.6 °F 61% 29.81 in 10.0 mi SE 16.1 mph 19.6 mph N/A   Mostly Cloudy
2:55 PM 47.7 °F - 35.8 °F 63% 29.80 in 10.0 mi SE 15.0 mph 24.2 mph N/A   Overcast
3:15 PM 47.5 °F - 36.7 °F 66% 29.80 in 10.0 mi SE 15.0 mph - N/A   Overcast
3:35 PM 48.9 °F - 37.0 °F 64% 29.79 in 10.0 mi ESE 16.1 mph - N/A   Overcast
3:55 PM 47.8 °F - 36.3 °F 64% 29.76 in 10.0 mi East 17.3 mph - N/A   Overcast
4:15 PM 47.5 °F - 37.6 °F 69% 29.78 in 10.0 mi ESE 13.8 mph - N/A   Overcast
4:35 PM 45.9 °F 39.4 °F 40.1 °F 80% 29.76 in 7.0 mi ESE 15.0 mph - N/A   Overcast
4:55 PM 46.0 °F 40.2 °F 39.4 °F 78% 29.77 in 7.0 mi ESE 12.7 mph - N/A   Overcast
5:14 PM 45.9 °F 40.0 °F 39.7 °F 79% 29.78 in 7.0 mi SE 12.7 mph - N/A   Overcast
5:55 PM 45.5 °F 41.8 °F 40.6 °F 83% 29.79 in 7.0 mi SSE 6.9 mph - N/A   Drizzle
6:15 PM 45.0 °F 41.8 °F 41.0 °F 86% 29.79 in 5.0 mi SSE 5.8 mph - N/A   Drizzle
6:35 PM 44.6 °F 39.7 °F 41.0 °F 87% 29.78 in 4.0 mi SE 9.2 mph - N/A Rain Light Rain
6:55 PM 43.9 °F 38.8 °F 41.4 °F 91% 29.77 in 4.0 mi ESE 9.2 mph - N/A   Drizzle
7:15 PM 43.7 °F 39.7 °F 41.2 °F 91% 29.76 in 5.0 mi ESE 6.9 mph - N/A Rain Light Rain
7:35 PM 43.7 °F 39.7 °F 41.7 °F 93% 29.76 in 5.0 mi SE 6.9 mph - 0.01 in Rain Light Rain
7:55 PM 43.3 °F 39.2 °F 41.9 °F 95% 29.76 in 5.0 mi ESE 6.9 mph - 0.01 in Rain Rain
8:15 PM 43.2 °F 39.0 °F 42.1 °F 96% 29.75 in 4.0 mi ESE 6.9 mph - 0.01 in Rain Light Rain
8:35 PM 43.3 °F 40.7 °F 42.4 °F 97% 29.76 in 4.0 mi SE 4.6 mph - 0.01 in   Drizzle
8:55 PM 43.0 °F 39.5 °F 42.3 °F 97% 29.75 in 2.5 mi ESE 5.8 mph - 0.04 in Rain Rain
9:15 PM 43.3 °F 37.7 °F 42.8 °F 98% 29.74 in 3.0 mi ESE 10.4 mph - 0.03 in Rain Rain
9:35 PM 43.7 °F 38.6 °F 43.0 °F 97% 29.73 in 3.0 mi East 9.2 mph - 0.04 in Rain Rain
9:55 PM 43.3 °F 41.7 °F 42.8 °F 98% 29.73 in 3.0 mi ENE 3.5 mph - 0.05 in Rain Light Rain
10:15 PM 43.3 °F 40.7 °F 43.0 °F 99% 29.73 in 2.5 mi ESE 4.6 mph - 0.01 in Rain Light Rain
10:35 PM 43.2 °F 41.5 °F 42.8 °F 99% 29.74 in 2.5 mi SE 3.5 mph - 0.02 in   Drizzle
10:54 PM 43.5 °F 39.4 °F 43.0 °F 98% 29.72 in 2.0 mi East 6.9 mph - 0.03 in Rain Rain
11:15 PM 43.7 °F 42.1 °F 43.2 °F 98% 29.70 in 2.0 mi East 3.5 mph - N/A   Overcast
11:35 PM 43.2 °F 40.5 °F 43.0 °F 99% 29.72 in 1.5 mi NW 4.6 mph - N/A   Overcast
11:55 PM 44.2 °F 39.2 °F 44.1 °F 99% 29.69 in 2.5 mi ESE 9.2 mph 17.3 mph 0.02 in Rain Rain